Regional Weather Roundup
Issued by NWS Newport/Morehead, NC

Current Version | Previous Version | Text Only | Print | Product List | Glossary On
Versions: 1 2 3 4 5 6 7 8 9 10 11 12 13 14 15 16 17 18 19 20 21 22 23 24 25 26 27 28 29 30 31 32 33 34 35 36 37 38 39 40 41 42 43 44 45 46 47 48 49 50
000
ASUS42 KMHX 291112
RWRMHX
WEATHER ROUNDUP FOR EASTERN NORTH CAROLINA
NATIONAL WEATHER SERVICE NEWPORT/MOREHEAD CITY NC
700 AM EDT SUN MAR 29 2015

NOTE: "FAIR" INDICATES FEW OR NO CLOUDS BELOW 12,000 FEET
WITH NO SIGNIFICANT WEATHER AND/OR OBSTRUCTIONS TO VISIBILITY

NCZ015>017-031-032-045>047-102-103-291200-
NORTH COAST

CITY           SKY/WX    TMP DP  RH WIND       PRES   REMARKS
EDENTON        CLEAR     28  16  61 N8        30.36R
ELIZABETH CITY CLEAR     28  12  51 NW12      30.35R WCI  18
KITTY HAWK     SUNNY     31  12  45 NW13G21   30.32R
MANTEO         CLEAR     31  12  44 N15G23    30.33R

$$

NCZ045>047-081-094-103-104-291200-
CENTRAL COAST

CITY           SKY/WX    TMP DP  RH WIND       PRES   REMARKS
FRISCO         CLEAR     32  14  47 N12G24    30.32R
SWANQUARTER      N/A     27 N/A N/A N1        30.33R

$$

NCZ095-097-098-100-101-291200-
SOUTHERN COAST

CITY           SKY/WX    TMP DP  RH WIND       PRES   REMARKS
BEAUFORT       CLEAR     31  17  56 N9        30.36R
CEDAR ISLAND     N/A     34 N/A N/A NW18G28   30.39R
JACKSONVILLE   CLEAR     28  19  69 N6        30.38R
PINEY ISLAND   SUNNY    N/A N/A N/A N16G22    30.35R
WILMINGTON     CLEAR     29  19  66 N6        30.38R


$$

NCZ011>013-027>030-043-044-078>080-089-090>093-098-291200-
COASTAL PLAIN

CITY           SKY/WX    TMP DP  RH WIND       PRES   REMARKS
AHOSKIE        CLEAR     26  14  60 CALM      30.38R
CLINTON        CLEAR     29  18  61 CALM      30.40R
ELIZABETHTOWN  CLEAR     29  20  67 CALM      30.39R
GOLDSBORO      CLEAR     29  21  72 NW5       30.37R
GREENVILLE     CLEAR     28  16  59 CALM      30.37R
HAVELOCK       CLEAR     33  11  39 N17       30.37R
KENANSVILLE    CLEAR     26  21  83 CALM      30.40R
KINSTON        CLEAR     27  18  69 CALM      30.39R
NEW BERN       CLEAR     28  17  63 NW6       30.38R
RICHLANDS      CLEAR     27  16  63 CALM      30.38R
ROCKY MOUNT    CLEAR     27  14  58 NW7       30.38R
WASHINGTON     CLEAR     27  18  71 CALM      30.37R
WHITEVILLE     CLEAR     29  20  69 CALM      30.38R

$$

AMZ130-135-150-152-154-156-158-170-250-252-270-ANZ085-086-088-633-658-670-291200-
MARINE OBSERVATIONS

STATION/POSITION TIME  TEMP    WIND        PRES    WAVE   SWELL
                       AIR SEA DIR/SP/G            HT/PER HT/PER
                 (UTC) (F)     (DEG/KT/KT) (MB)    (FT/S) (FT/S)
CHESAPEAKE LIGHT 1000   32     330/ 23/ 26 1025.7
64 E VA BEACH    1050   35 54  330/ 21/ 27 1024.2    6/ 6   2/ 9
DUCK             NOT AVBL
2 E DUCK         1011      42                N/A     4/ 6   2/11
10 NE DUCK       NOT AVBL
OREGON INLET     NOT AVBL
HATTERAS CG      NOT AVBL
CAPE LOOKOUT     1100   34     340/ 16/ 20 1027.3
BEAUFORT LAB     NOT AVBL
27 SE WRIGHTSVLE 1000   39 65   10/ 19/ 23 1026.5
5 SE WRIGHTSVLE  1000   37 55   20/ 17/ 23 1027.0
225 S CAPE HAT   1050   56 68  330/ 19/ 23 1022.5    8/ 7
41 SE CHARLESTON 1050   48 68   20/ 21/ 25 1026.0    6/ 6   2/ 9

$$



USA.gov is the U.S. government's official web portal to all federal, state and local government web resources and services.